Location: Warwick
(41.7000°N, 71.4170°W)
Time: 07:54:04
(UTC-04:00)

BREEZE-M DEB (TANK) - Visible Passes

Search period start: 23 July 2014 00:00
Search period end: 02 August 2014 00:00
Orbit: 279 x 16086 km, 49.5° (Epoch: 22 July)

Date Brightness Start Highest point End Pass type
(mag) Time Alt. Az. Time Alt. Az. Time Alt. Az.
23 Jul 8.7 00:00:00 35° S 01:35:55 76° ESE 03:03:50 10° ENE visible
23 Jul 9.2 20:05:26 10° E 20:55:05 15° ENE 21:36:32 10° NE visible
23 Jul 8.6 23:54:00 10° SSW 01:57:15 81° ESE 03:22:54 10° ENE visible
24 Jul 8.9 20:02:04 10° E 21:09:11 19° ENE 22:03:41 10° NE visible
25 Jul 8.6 00:11:56 10° SSW 02:19:55 86° SE 03:41:51 10° ENE visible
25 Jul 8.8 20:04:39 10° ESE 21:23:29 24° ENE 22:27:42 10° NE visible
26 Jul 8.6 00:30:13 10° SSW 02:44:04 89° NW 04:00:41 10° ENE visible
26 Jul 8.6 20:11:18 10° ESE 21:38:00 29° ENE 22:50:08 10° NE visible
27 Jul 8.7 00:48:51 10° SW 03:09:40 85° NW 04:19:25 10° ENE visible
27 Jul 8.5 20:20:55 10° SE 21:52:45 33° E 23:11:34 10° NE visible
28 Jul 8.8 01:07:52 10° SW 03:36:13 82° NNW 04:38:03 10° ENE visible
28 Jul 8.5 20:32:38 10° SE 22:07:47 38° E 23:32:22 10° NE visible
29 Jul 8.8 01:27:20 10° SW 04:02:51 80° NNW 04:56:33 10° E visible
29 Jul 8.4 20:45:51 10° SSE 22:23:08 44° E 23:52:41 10° NE visible
30 Jul 8.9 01:47:17 10° SW 04:28:45 78° N 05:14:57 10° E visible
30 Jul 8.4 21:00:08 10° SSE 22:38:52 49° E 00:12:38 10° NE visible
31 Jul 8.8 02:07:49 10° WSW 04:53:27 77° N 05:33:13 10° E visible
31 Jul 8.4 21:15:12 10° SSE 22:55:04 54° E 00:32:19 10° NE visible
01 Aug 8.7 02:29:01 10° WSW 05:16:57 78° N 05:51:22 10° E visible
01 Aug 8.4 21:30:51 10° S 23:11:52 60° E 00:00:00 50° ENE visible
